Weather in Krutiha

Russia / Sverdlovsk Oblast     57°12′41″N   61°06′20″E
temp.,
°C
wind,
m/s
gust,
m/s
humid.,
%
clouds,
%
prec.,
mm/h
press.,
hPa
HPBL,
m
8 may, sat
sat823:00+13w1163100 0.0 101811
02:00+13ssw116859 0.0 101811
05:00+10wsw11805 0.0 101810
08:00+15sw116095 0.0 1017234
11:00+20s114136 0.0 10171222
14:00+20sw1131100 0.0 10162518
17:00+18nnw4647100 0.1 1016434
20:00+14nw246693 0.0 1017155
9 may, sun
sun923:00+12n2268100 0.1 101738
02:00+11nne2374100 0.0 101749
05:00+11n2277100 0.0 101717
08:00+14n2461100 0.0 1017260
11:00+18nne2247100 0.0 1017731
14:00+21e2432100 0.0 10182019
17:00+20w233599 0.0 1018423
20:00+17ene3648100 0.0 1019189
10 may, mon
mon1023:00+13e2861100 0.0 1020153
02:00+11ese126975 0.0 102111
05:00+10e11765 0.0 102210
08:00+15ese23565 0.0 1023342
11:00+19e34373 0.0 10231346
14:00+21e33281 0.0 10232075
17:00+22ese33251 0.0 10222242
20:00+17se3740100 0.0 1023165
11 may, tue
tue1123:00+12sse3950100 0.0 1024193
02:00+11s3953100 0.0 1025184
05:00+11ssw3854100 0.0 1025172
08:00+14wsw2650100 0.0 1025261
11:00+17nnw356097 0.1 10251151
14:00+18nw365797 0.6 10251509
17:00+18nne354013 0.7 10261994
20:00+15ne37566 0.0 1027342
12 may, wed
wed1223:00+10n11726 0.0 102810
02:00+9nw2269100 0.0 102916
05:00+8wnw2269100 0.0 103028
08:00+11wnw2455100 0.0 1030246
11:00+14nw4649100 0.0 1030842
14:00+12wnw387099 0.0 1029508
17:00+17nnw3655100 0.0 10281116
20:00+14ne247173 0.0 1028122